Big Piney, WY

7:37 PM MST on February 24, 2017 (GMT -0700)
Big Piney-Marbleton

Weather History for KBPI - January, 2014

Change the Weather History Date:

Monday, January 27, 2014

  Actual Average Record
Temperature  
Mean Temperature 17 °F 11 °F  
Max Temperature 32 °F 26 °F 44 °F (1988)
Min Temperature 2 °F -2 °F -29 °F (2009)
Degree Days  
Heating Degree Days 48 54  
Month to date heating degree days 1275 1458  
Since 1 July heating degree days 5394 5897  
Cooling Degree Days 0 0  
Month to date cooling degree days 0 0  
Year to date cooling degree days 0 0  
Moisture  
Dew Point 7 °F    
Average Humidity 66    
Maximum Humidity 88    
Minimum Humidity 43    
Precipitation  
Precipitation T in 0.01 in 0.11 in (1996)
Month to date precipitation 0.01 0.28  
Year to date precipitation 0.01 0.28  
Sea Level Pressure  
Sea Level Pressure 30.11 in    
Wind  
Wind Speed 9 mph (NNE)    
Max Wind Speed 23 mph    
Max Gust Speed 28 mph    
Visibility 10 miles    
Events      
T = Trace of Precipitation, MM = Missing Value Source: NWS Daily Summary

Daily Weather History Graph

Daily Weather History Graph

Search for Another Location

Airport or City:

Trip Planner

Search our weather history database for the weather conditions in past years. The results will help you decide how hot, cold, wet, or windy it might be!

Date:

Astronomy

Jan. 27, 2014 Rise Set
Actual Time 7:39 AM MST 5:27 PM MST
Civil Twilight 7:09 AM MST 5:57 PM MST
Nautical Twilight 6:35 AM MST 6:31 PM MST
Astronomical Twilight 6:01 AM MST 7:05 PM MST
Moon 4:25 AM MST (1/27) 2:16 PM MST (1/27)
Length of Visible Light 10h 48m
Length of Day
9h 48m
Waning Crescent, 14% of the Moon is Illuminated
Jan 27
Waning Crescent
Jan 30
New
Feb 6
First Quarter
Feb 14
Full
Feb 22
Last Quarter

Hourly Weather History & Observations

Time (MST) Temp. Windchill Dew Point Humidity Pressure Visibility Wind Dir Wind Speed Gust Speed Precip Events Conditions
12:53 AM 18.0 °F 4.8 °F 12.0 °F 78% 30.02 in 10.0 mi SSE 12.7 mph - N/A   Overcast
1:53 AM 17.1 °F 11.7 °F 12.0 °F 81% 30.02 in 10.0 mi SSE 3.5 mph - N/A   Overcast
2:53 AM 14.0 °F 8.2 °F 10.0 °F 84% 30.05 in 10.0 mi SE 3.5 mph - N/A   Mostly Cloudy
3:53 AM 14.0 °F 8.2 °F 10.0 °F 84% 30.04 in 10.0 mi SSE 3.5 mph - N/A   Mostly Cloudy
4:53 AM 14.0 °F 6.5 °F 10.0 °F 84% 30.04 in 10.0 mi South 4.6 mph - N/A   Scattered Clouds
5:53 AM 14.0 °F - 10.0 °F 84% 30.06 in 10.0 mi Calm Calm - N/A   Overcast
6:53 AM 12.0 °F 5.9 °F 8.1 °F 84% 30.07 in 10.0 mi North 3.5 mph - N/A   Overcast
7:53 AM 12.9 °F 6.9 °F 9.0 °F 84% 30.08 in 10.0 mi NW 3.5 mph - 0.00 in   Overcast
8:53 AM 16.0 °F - 10.9 °F 81% 30.09 in 10.0 mi Calm Calm - N/A   Mostly Cloudy
9:53 AM 16.0 °F - 10.9 °F 81% 30.07 in 10.0 mi Calm Calm - 0.00 in   Scattered Clouds
10:53 AM 19.0 °F 13.9 °F 12.0 °F 74% 30.09 in 10.0 mi ESE 3.5 mph - N/A   Scattered Clouds
11:53 AM 21.9 °F 14.5 °F 14.0 °F 72% 30.08 in 10.0 mi SE 5.8 mph - N/A   Overcast
12:53 PM 30.9 °F 19.1 °F 16.0 °F 54% 30.01 in 10.0 mi North 18.4 mph - N/A   Scattered Clouds
1:53 PM 30.0 °F 16.9 °F 16.0 °F 56% 30.01 in 10.0 mi North 21.9 mph 27.6 mph N/A   Overcast
2:53 PM 28.0 °F 15.7 °F 14.0 °F 56% 30.04 in 10.0 mi NNW 17.3 mph - N/A   Overcast
3:53 PM 26.1 °F 12.7 °F 10.0 °F 51% 30.07 in 10.0 mi North 18.4 mph - N/A   Clear
4:53 PM 23.0 °F 8.7 °F 7.0 °F 50% 30.09 in 10.0 mi North 18.4 mph - N/A   Clear
5:53 PM 18.0 °F 3.1 °F -2.0 °F 41% 30.15 in 10.0 mi North 16.1 mph - N/A   Clear
6:53 PM 14.0 °F -2.0 °F -2.9 °F 47% 30.22 in 10.0 mi NNW 16.1 mph - N/A   Clear
7:53 PM 10.9 °F -4.1 °F -2.0 °F 56% 30.26 in 10.0 mi NNW 12.7 mph - N/A   Clear
8:53 PM 3.9 °F -10.4 °F -5.1 °F 66% 30.30 in 10.0 mi NW 9.2 mph - N/A   Clear
9:53 PM 10.9 °F 4.7 °F -5.1 °F 49% 30.27 in 10.0 mi North 3.5 mph - N/A   Clear
10:53 PM 3.9 °F -9.4 °F -7.1 °F 60% 30.29 in 10.0 mi North 8.1 mph - N/A   Clear
11:53 PM 6.1 °F - -8.0 °F 53% 30.30 in 10.0 mi Calm Calm - N/A   Clear